Date String (YYYY-MM-DD hh:mm:ss) UTC,Instrument flags,Ambient pressure (hPa),Sample flow (lpm),Bypass flow (lpm),Sample temperature (°C),Ambient temperature (°C),ASC tube jacket temperature (°C),LED temperature (°C),Box temperature (°C),Sample RH (%),Span deviation,Mass concentration (μg/m³),Mass concentration (μg/m³),Mass concentration (μg/m³)
DateTimeUTC,F1_M11,P_M11,Q1_M11,Q2_M11,T1_M11,T2_M11,T3_M11,T4_M11,T5_M11,U1_M11,ZSPAN_M11,X0_M11,X2_M11,X1_M11
2023-03-07 02:00:00,,0825.4,5.00,0.00,22.2,20.6,00.0,31.1,23.9,15.3,-001.0,0009.92,0005.18,0004.74
2023-03-07 02:01:00,,0825.3,4.99,0.00,22.2,20.5,00.0,31.0,23.9,15.3,-001.1,0009.88,0005.25,0004.80
2023-03-07 02:02:00,,0825.4,5.01,0.00,22.2,20.5,00.0,31.0,23.9,15.3,-000.9,0009.82,0005.27,0004.82
2023-03-07 02:03:00,,0825.4,5.00,0.00,22.2,20.5,00.0,31.0,23.9,15.3,-000.7,0009.20,0005.30,0004.86
2023-03-07 02:04:00,,0825.4,5.00,0.00,22.2,20.5,00.0,31.0,23.9,15.4,-001.3,0009.22,0005.34,0004.90
2023-03-07 02:05:00,,0825.4,5.00,0.00,22.2,20.6,00.0,31.0,23.9,15.4,-001.4,0009.25,0005.39,0004.96
2023-03-07 02:06:00,,0825.4,4.98,0.00,22.2,20.6,00.0,31.0,23.9,15.4,-001.5,0009.30,0005.44,0005.03
2023-03-07 02:07:00,,0825.4,5.00,0.00,22.2,21.5,00.0,31.0,24.1,15.4,-001.3,0009.66,0005.51,0005.08
2023-03-07 02:08:00,,0825.5,4.98,0.00,22.4,22.5,00.0,31.0,24.3,15.3,-001.1,0009.84,0005.54,0005.11
2023-03-07 02:09:00,,0825.5,4.97,0.00,22.5,23.0,00.0,31.0,24.5,15.2,-000.9,0009.91,0005.55,0005.12
2023-03-07 02:10:00,,0825.5,4.99,0.00,22.5,22.6,00.0,31.1,24.5,15.2,-000.6,0009.97,0005.58,0005.14
2023-03-07 02:11:00,,0825.4,5.00,0.00,22.6,22.3,00.0,31.1,24.4,15.2,-001.4,0009.89,0005.58,0005.14
2023-03-07 02:12:00,,0825.4,4.98,0.00,22.6,22.0,00.0,31.1,24.4,15.2,-000.6,0009.23,0005.52,0005.10
2023-03-07 02:13:00,,0825.5,5.00,0.00,22.6,21.7,00.0,31.2,24.3,15.2,-000.4,0009.00,0005.47,0005.09
2023-03-07 02:14:00,,0825.5,5.00,0.00,22.6,21.6,00.0,31.2,24.3,15.2,-000.1,0008.85,0005.43,0005.07
2023-03-07 02:15:00,,0825.4,4.99,0.00,22.5,21.4,00.0,31.2,24.3,15.2,0000.4,0008.89,0005.41,0005.04
2023-03-07 02:16:00,,0825.5,5.00,0.00,22.5,21.3,00.0,31.2,24.3,15.2,0000.2,0008.82,0005.37,0005.00
2023-03-07 02:17:00,,0825.5,5.00,0.00,22.5,21.2,00.0,31.2,24.2,15.2,-000.4,0008.81,0005.33,0004.96
2023-03-07 02:18:00,,0825.4,4.99,0.00,22.5,21.1,00.0,31.2,24.2,15.2,-000.4,0008.54,0005.31,0004.93
2023-03-07 02:19:00,,0825.4,4.99,0.00,22.5,21.0,00.0,31.2,24.2,15.2,-000.2,0008.47,0005.31,0004.93
2023-03-07 02:20:00,,0825.5,4.99,0.00,22.5,21.0,00.0,31.2,24.2,15.3,0000.3,0008.52,0005.34,0004.93
2023-03-07 02:21:00,,0825.5,5.01,0.00,22.5,20.9,00.0,31.2,24.2,15.2,0000.8,0008.56,0005.36,0004.94
2023-03-07 02:22:00,,0825.5,5.00,0.00,22.5,20.9,00.0,31.2,24.2,15.2,0001.3,0008.53,0005.36,0004.95
2023-03-07 02:23:00,,0825.5,5.01,0.00,22.5,20.9,00.0,31.2,24.2,15.2,0001.0,0008.64,0005.40,0004.97
2023-03-07 02:24:00,,0825.5,5.00,0.00,22.5,20.8,00.0,31.2,24.2,15.2,0001.1,0009.04,0005.43,0004.98
2023-03-07 02:25:00,,0825.6,5.00,0.00,22.5,20.8,00.0,31.2,24.2,15.3,0000.7,0010.39,0005.49,0004.99
2023-03-07 02:26:00,,0825.6,4.99,0.00,22.4,20.8,00.0,31.2,24.1,15.2,0000.5,0010.91,0005.51,0004.99
2023-03-07 02:27:00,,0825.5,5.01,0.00,22.4,20.8,00.0,31.2,24.1,15.3,0000.4,0011.49,0005.54,0004.99
2023-03-07 02:28:00,,0825.5,4.99,0.00,22.4,20.8,00.0,31.2,24.1,15.3,0000.9,0011.59,0005.53,0004.98
2023-03-07 02:29:00,,0825.5,5.01,0.00,22.4,20.8,00.0,31.2,24.1,15.3,0000.8,0011.68,0005.51,0004.97
2023-03-07 02:30:00,,0825.4,5.00,0.00,22.4,20.7,00.0,31.2,24.1,15.3,0000.8,0011.74,0005.50,0004.96
2023-03-07 02:31:00,,0825.5,5.00,0.00,22.4,20.7,00.0,31.2,24.1,15.3,0000.3,0011.66,0005.48,0004.97
2023-03-07 02:32:00,,0825.5,5.01,0.00,22.4,20.7,00.0,31.2,24.0,15.3,-000.1,0011.97,0005.47,0004.96
2023-03-07 02:33:00,,0825.5,4.99,0.00,22.3,20.7,00.0,31.2,24.0,15.4,-000.6,0011.99,0005.48,0004.97
2023-03-07 02:34:00,,0825.4,5.00,0.00,22.3,20.7,00.0,31.1,24.0,15.4,-001.1,0012.09,0005.51,0004.97
2023-03-07 02:35:00,,0825.5,5.00,0.00,22.3,20.7,00.0,31.1,24.0,15.4,-000.7,0012.02,0005.55,0004.98
2023-03-07 02:36:00,,0825.5,5.01,0.00,22.3,20.7,00.0,31.1,24.0,15.4,-001.1,0010.97,0005.56,0004.99
2023-03-07 02:37:00,,0825.5,5.00,0.00,22.3,20.7,00.0,31.1,24.0,15.4,-000.9,0010.36,0005.56,0005.00
2023-03-07 02:38:00,,0825.6,5.00,0.00,22.3,20.7,00.0,31.1,24.0,15.4,-001.1,0010.05,0005.56,0005.01
2023-03-07 02:39:00,,0825.6,5.00,0.00,22.3,20.7,00.0,31.1,24.0,15.4,-001.7,0010.06,0005.59,0005.03
2023-03-07 02:40:00,,0825.6,5.00,0.00,22.3,20.6,00.0,31.1,24.0,15.4,-001.4,0010.07,0005.61,0005.05
2023-03-07 02:41:00,,0825.6,4.99,0.00,22.3,20.9,00.0,31.1,24.1,15.4,-001.3,0009.74,0005.60,0005.06
2023-03-07 02:42:00,,0825.6,5.02,0.00,22.4,21.8,00.0,31.1,24.3,15.3,-001.7,0009.71,0005.59,0005.07
2023-03-07 02:43:00,,0825.6,5.03,0.00,22.5,22.8,00.0,31.1,24.5,15.2,-001.5,0009.29,0005.60,0005.09
2023-03-07 02:44:00,,0825.6,5.00,0.00,22.6,22.9,00.0,31.1,24.5,15.2,-001.2,0009.32,0005.61,0005.10
2023-03-07 02:45:00,,0825.6,5.00,0.00,22.6,22.5,00.0,31.2,24.5,15.2,-000.6,0009.38,0005.63,0005.10
2023-03-07 02:46:00,,0825.6,5.02,0.00,22.6,22.2,00.0,31.2,24.5,15.1,-000.8,0009.39,0005.62,0005.09
2023-03-07 02:47:00,,0825.6,5.01,0.00,22.6,21.9,00.0,31.2,24.4,15.1,-000.7,0009.24,0005.58,0005.09
2023-03-07 02:48:00,,0825.6,4.99,0.00,22.6,21.7,00.0,31.2,24.4,15.1,-000.3,0009.19,0005.56,0005.09
2023-03-07 02:49:00,,0825.6,5.02,0.00,22.6,21.5,00.0,31.2,24.4,15.2,-000.3,0009.09,0005.56,0005.08
2023-03-07 02:50:00,,0825.6,4.99,0.00,22.6,21.3,00.0,31.3,24.3,15.2,0000.8,0008.95,0005.57,0005.09
2023-03-07 02:51:00,,0825.6,4.99,0.00,22.5,21.1,00.0,31.3,24.2,15.2,0000.8,0009.43,0005.57,0005.10
2023-03-07 02:52:00,,0825.6,5.00,0.00,22.5,21.0,00.0,31.3,24.2,15.2,0000.5,0009.64,0005.61,0005.11
2023-03-07 02:53:00,,0825.6,5.01,0.00,22.5,20.8,00.0,31.3,24.1,15.3,0000.9,0009.80,0005.67,0005.12
2023-03-07 02:54:00,,0825.6,5.01,0.00,22.5,20.7,00.0,31.2,24.1,15.3,0001.1,0009.77,0005.65,0005.11
2023-03-07 02:55:00,,0825.6,5.01,0.00,22.5,20.7,00.0,31.2,24.1,15.3,0001.1,0009.80,0005.67,0005.12
2023-03-07 02:56:00,,0825.6,4.99,0.00,22.4,20.7,00.0,31.2,24.1,15.3,0001.0,0009.96,0005.63,0005.11
2023-03-07 02:57:00,,0825.6,4.99,0.00,22.4,20.6,00.0,31.2,24.0,15.3,0000.8,0009.85,0005.60,0005.11
2023-03-07 02:58:00,,0825.6,5.00,0.00,22.4,20.6,00.0,31.2,24.0,15.3,0000.9,0009.91,0005.61,0005.10
2023-03-07 02:59:00,,0825.6,5.00,0.00,22.4,20.5,00.0,31.2,24.0,15.4,0000.3,0010.42,0005.64,0005.11
